Theta_e
311 316 313 309 309 309 310 312 312 311 307 306 310 309 308 308 309 308 309 309 307 306 305 303 304 304 304 304 304 304 305 305 309 308 306 305 305 304 303 302 301 301 301 300
316 312 307 307 308 308 310 312 312 310 307 304 306 304 308 304 303 303 304 305 306 305 305 303 303 303 303 303 303 303 304 305 307 307 306 306 305 305 303 302 301 301 301 300
313 307 305 306 307 310 308 308 307 306 305 306 303 308 305 302 303 303 303 303 303 303 303 303 302 302 302 302 301 302 303 303 305 305 304 303 302 302 302 301 301 300 300 300
307 305 305 307 305 305 312 303 303 305 308 311 302 315 305 303 303 302 302 302 301 302 302 302 301 301 300 300 301 302 302 302 303 303 302 303 303 304 304 303 302 300 298 298
306 304 305 306 302 302 306 301 302 303 307 305 306 312 306 302 303 301 301 301 301 300 300 301 300 300 299 299 299 301 301 301 301 301 302 302 303 303 303 302 301 300 298 297
303 301 301 301 302 301 300 301 301 302 309 320 300 304 308 303 301 300 299 299 299 299 300 300 300 299 299 299 298 299 300 300 300 300 301 301 302 302 302 302 301 300 299 297
304 303 301 299 305 303 303 311 328 326 322 315 296 301 307 301 299 299 298 298 298 298 298 298 298 298 298 298 297 296 296 298 299 298 299 299 300 301 301 301 300 299 297 295
310 319 305 299 301 302 301 304 312 308 308 306 294 307 305 299 298 298 297 297 296 296 296 296 295 295 296 296 297 296 295 295 296 296 296 296 296 296 297 297 296 295 294 293
308 309 299 297 298 299 303 312 297 303 291 303 306 307 301 299 299 297 296 295 295 294 294 294 293 293 293 293 294 295 295 294 294 294 294 294 294 293 293 293 292 291 291 290
301 311 299 299 297 297 302 297 310 308 308 307 310 306 305 304 301 297 294 294 293 293 293 292 292 292 292 292 292 292 294 293 292 292 292 292 291 291 291 290 290 290 289 289
299 304 306 296 302 307 301 305 301 303 302 306 304 305 304 301 295 294 295 293 293 292 291 291 291 291 291 291 291 291 292 293 293 291 291 290 290 290 289 289 289 289 288 288
300 301 306 314 296 296 297 303 302 303 304 301 300 301 299 295 294 293 293 294 293 291 291 290 290 290 289 290 290 289 289 290 292 293 291 290 290 289 288 288 288 288 288 287
300 307 307 311 298 296 298 299 299 298 298 301 302 302 294 297 295 294 293 292 292 291 290 289 289 288 288 288 288 288 287 287 288 290 292 290 289 288 288 288 288 287 287 287
298 300 306 305 307 299 300 299 298 299 303 301 303 304 300 297 292 291 290 290 292 290 288 288 287 287 287 287 286 286 286 286 285 287 290 291 289 288 288 287 287 287 286 286
299 302 298 299 299 296 297 297 299 299 298 300 299 300 301 292 290 289 289 292 290 288 287 287 287 286 286 286 285 285 285 284 284 285 286 288 288 287 287 287 286 286 285 285
298 301 293 297 294 293 294 295 296 296 297 297 297 297 289 289 289 289 289 289 288 287 286 286 286 286 286 285 285 285 285 284 283 283 283 284 285 285 286 285 285 285 285 285
299 299 298 299 292 292 299 298 297 296 295 295 294 293 289 288 288 287 288 289 287 286 286 286 286 285 284 284 284 284 284 284 283 282 282 282 283 284 284 284 284 284 284 283
294 296 298 301 295 302 300 291 292 295 292 290 290 289 287 288 287 287 289 288 286 286 285 285 284 283 283 283 283 283 283 284 284 283 282 282 282 282 283 284 284 286 284 283
295 298 299 298 300 300 298 291 293 292 293 289 288 287 287 287 286 288 288 286 285 284 283 283 283 283 283 283 283 283 283 283 284 284 284 283 282 282 285 282 282 283 283 283
292 294 298 293 297 300 293 291 290 291 294 286 285 286 285 285 285 286 285 284 283 282 282 282 283 283 283 283 282 282 282 282 283 283 284 284 284 283 284 284 283 283 282 282
294 294 297 298 298 298 292 289 289 294 291 285 285 284 284 283 284 284 283 283 282 282 282 282 282 282 282 282 281 281 281 281 281 281 281 282 283 283 283 284 282 282 281 281
296 297 297 296 298 297 288 288 292 286 285 284 284 283 282 282 283 282 282 282 281 282 282 282 282 282 281 281 280 280 280 280 279 279 279 280 281 283 283 282 282 281 281 281
293 297 300 297 298 287 286 285 284 284 283 283 282 282 282 282 282 282 282 281 281 281 281 281 281 281 280 280 279 279 279 278 278 277 278 279 279 281 282 282 282 281 281 281
290 288 291 291 289 286 284 284 283 283 283 282 282 282 281 281 281 281 281 281 281 281 281 280 280 280 279 279 279 278 277 277 276 276 277 278 279 280 280 280 280 281 281 281
292 288 291 290 286 285 284 285 283 283 282 282 281 281 281 281 281 281 281 280 280 280 280 279 279 279 279 278 278 277 276 275 275 275 276 277 278 279 279 279 280 280 280 280
288 290 290 291 285 284 284 283 283 282 282 281 281 281 280 280 280 279 279 279 279 279 279 278 278 278 278 277 277 276 275 274 274 274 275 275 276 277 278 278 279 279 279 279
Wind_Speed
6 9 9 10 8 5 6 6 8 6 6 11 9 16 17 11 8 9 9 6 2 3 4 3 6 8 9 10 11 12 12 11 12 12 12 11 12 11 10 10 10 11 10 9
5 8 8 5 6 4 6 4 6 2 3 7 10 19 7 10 9 9 9 10 8 4 2 3 6 8 10 11 13 13 12 10 10 12 11 11 9 10 10 10 10 10 10 11
8 5 6 3 9 5 7 5 6 5 13 5 14 6 9 10 13 12 13 11 8 6 7 7 9 11 12 13 15 15 13 10 9 10 10 10 8 7 7 9 9 9 10 11
6 5 5 4 5 7 1 5 5 7 8 3 9 0 7 10 12 15 14 14 14 10 7 8 10 11 12 13 13 13 12 10 7 8 10 11 12 13 11 10 9 9 10 9
3 6 7 5 3 5 3 5 4 3 3 4 3 2 6 9 11 14 15 15 14 12 8 9 11 11 11 11 12 13 12 10 9 8 11 12 14 14 11 9 9 9 9 10
4 1 4 5 5 3 7 4 3 2 1 1 2 4 2 4 6 10 13 15 15 13 12 12 12 12 13 14 14 14 13 12 11 10 11 13 15 15 13 12 11 11 10 9
0 3 1 4 4 2 7 3 3 2 2 2 1 4 4 5 8 11 12 14 14 14 14 14 18 18 18 18 17 16 14 15 13 13 13 13 13 14 15 15 13 12 11 10
3 2 3 7 4 3 4 2 2 5 4 6 2 5 2 8 11 10 12 12 13 15 14 15 20 22 22 22 21 20 19 19 16 15 15 14 14 13 13 12 12 11 10 10
4 1 3 4 2 2 2 0 2 2 1 3 3 4 8 8 6 12 14 14 15 15 15 17 24 25 24 24 24 23 23 23 21 19 18 17 16 15 14 13 12 11 10 9
2 4 1 1 1 4 1 2 1 2 3 5 4 4 7 6 2 9 13 12 13 12 14 18 22 24 25 24 25 25 23 24 25 24 21 20 18 17 16 14 14 12 11 11
2 0 1 1 4 3 2 1 1 2 2 4 5 3 1 7 4 5 5 9 8 11 15 16 23 25 25 25 26 29 28 26 28 27 26 23 22 19 18 18 16 15 13 12
2 2 5 1 3 2 1 2 4 3 2 3 4 8 5 7 2 2 7 9 10 8 10 17 22 25 26 26 28 29 29 29 31 31 28 26 24 21 20 20 18 16 16 14
1 1 5 3 2 2 3 4 4 1 2 9 7 5 3 2 5 6 7 9 8 9 12 17 21 23 24 27 28 30 30 29 30 30 28 28 26 23 23 21 19 17 16 15
0 3 5 7 3 3 5 7 9 7 5 9 14 15 6 7 9 11 11 9 7 10 12 12 17 22 27 30 32 33 35 35 33 28 26 28 28 26 24 22 20 19 18 16
2 5 3 11 7 4 8 14 11 13 14 9 18 12 6 6 7 8 10 9 10 12 13 13 13 21 25 27 30 32 35 37 34 30 27 29 31 26 24 22 20 18 18 20
1 2 2 5 4 7 12 22 14 14 16 16 19 20 5 4 6 8 11 8 10 13 16 17 22 26 28 31 34 36 37 40 38 36 32 31 29 28 31 30 24 20 19 18
2 1 2 5 5 10 8 7 8 4 5 4 5 4 8 7 10 13 10 9 12 17 17 17 22 27 31 33 37 39 38 38 36 36 38 35 29 27 28 28 26 26 25 23
4 3 2 4 3 5 1 2 3 4 3 2 4 5 6 7 8 15 8 8 14 15 16 20 25 30 32 33 35 35 38 40 36 34 35 37 27 24 29 29 29 31 31 28
5 3 3 4 4 8 7 2 1 2 2 0 4 6 9 11 14 13 11 16 16 21 24 26 29 30 33 34 32 34 34 36 36 34 31 32 26 25 27 26 29 29 27 27
3 3 4 1 5 8 3 4 3 1 6 3 5 9 13 14 11 12 17 22 22 26 26 29 30 31 33 32 33 33 32 33 33 34 33 33 30 28 30 28 28 29 24 23
3 4 9 9 7 8 4 1 1 3 3 4 7 10 13 12 11 18 23 22 26 26 28 31 30 30 31 31 32 31 32 31 34 36 37 35 33 31 31 29 24 24 22 20
7 7 6 3 5 9 2 2 4 3 3 6 9 11 14 16 17 17 19 22 26 26 29 30 29 30 34 30 28 31 32 35 35 35 35 34 33 29 27 21 22 21 20 19
4 5 2 8 4 3 3 5 4 4 6 8 11 13 15 17 17 18 17 23 25 28 28 28 28 30 33 29 27 29 34 35 36 35 33 32 31 28 24 19 18 15 16 17
5 3 4 2 3 4 5 2 2 5 7 10 11 14 16 17 17 18 18 24 25 28 28 28 29 29 31 31 31 29 32 33 33 31 31 31 29 25 21 20 18 17 15 15
1 4 3 5 2 2 6 5 6 7 10 11 15 16 17 17 18 21 18 25 27 28 29 28 28 28 31 32 33 31 31 31 30 29 28 26 23 23 20 19 19 17 19 18
5 3 3 3 4 1 0 3 7 7 9 12 14 17 19 20 20 25 23 27 26 27 28 30 28 28 31 32 33 32 31 28 26 28 25 24 23 21 20 18 19 17 19 19
Wind_Direction
35 58 42 20 18 8 342 344 340 14 21 328 300 306 313 329 344 337 306 285 295 300 49 358 352 346 343 339 333 325 310 284 251 239 238 238 244 243 241 239 236 239 240 246
74 60 14 355 7 353 3 345 3 294 325 316 324 310 48 37 35 29 18 14 8 333 308 349 344 343 345 342 341 337 325 302 260 247 250 252 259 251 247 240 238 237 239 242
66 24 336 345 28 359 44 20 358 319 315 244 323 112 96 75 74 64 43 31 18 11 347 346 348 350 349 349 346 341 334 316 277 251 252 250 250 247 242 237 234 238 238 244
64 12 9 36 66 355 296 3 319 318 338 319 13 237 130 111 77 50 38 28 20 5 357 348 345 345 345 342 340 339 336 327 300 269 260 259 262 264 257 249 232 228 233 234
44 10 17 47 11 345 7 330 318 327 304 317 30 268 107 156 61 44 39 33 25 15 0 346 337 335 334 336 335 335 332 326 310 283 265 267 265 268 271 253 242 232 239 241
81 59 25 350 314 318 325 307 287 242 188 254 53 355 54 39 22 50 34 24 19 13 9 2 346 337 338 336 334 330 326 319 313 299 285 274 270 269 261 253 246 240 238 238
171 53 43 356 309 192 353 318 330 271 270 301 11 272 343 46 69 57 26 15 15 12 10 3 358 350 343 337 330 324 318 311 305 300 289 280 274 270 264 261 253 246 241 235
19 250 14 355 33 339 14 18 18 297 290 326 179 238 132 96 108 58 34 24 16 12 13 14 9 2 350 339 330 320 312 303 297 288 282 279 276 270 267 261 252 248 245 241
341 255 111 42 349 327 54 90 40 111 120 256 260 249 124 121 78 19 24 22 18 13 16 13 8 1 352 346 336 323 311 301 294 285 279 273 268 263 259 256 249 245 242 242
63 290 94 135 261 61 323 91 207 176 282 276 209 258 280 184 69 3 17 16 4 6 13 5 359 354 350 343 337 328 311 296 288 281 271 266 260 257 256 254 250 247 246 246
107 299 187 176 196 156 149 193 212 316 252 275 298 245 0 107 59 356 340 354 2 3 1 354 348 346 343 340 340 334 323 306 290 279 270 260 255 250 248 245 245 244 244 243
59 312 275 257 115 357 277 263 227 249 230 246 300 275 87 104 83 346 352 354 354 355 344 341 341 339 338 335 335 333 325 317 305 287 274 264 256 246 242 243 243 240 241 243
64 240 302 221 164 165 225 205 212 0 300 241 258 263 182 106 53 24 358 346 340 339 343 339 334 332 329 331 330 330 325 319 316 303 280 268 258 249 244 242 240 238 238 240
262 267 243 264 343 347 255 226 218 208 253 271 241 269 235 346 6 357 343 341 338 341 335 330 329 333 337 335 331 329 328 325 322 315 288 275 265 255 248 245 240 234 234 237
252 257 278 273 274 245 260 263 229 214 238 255 273 280 312 10 345 326 310 327 342 337 328 331 325 326 327 324 323 322 322 325 323 310 295 274 266 267 264 255 246 241 243 255
176 283 10 277 319 288 269 268 259 235 252 259 271 282 32 323 313 325 321 333 323 324 333 329 324 325 326 325 321 320 318 317 320 315 298 290 273 264 265 260 257 262 255 253
229 281 330 269 356 319 269 266 228 188 196 223 235 21 359 340 333 323 312 313 316 330 320 319 322 323 322 319 320 318 317 314 313 312 309 295 280 264 261 263 259 258 261 263
157 170 209 280 318 258 20 108 336 235 237 217 311 354 342 319 310 291 286 284 324 321 323 322 320 317 315 313 313 317 320 315 311 306 309 305 290 278 278 271 272 268 263 261
221 209 248 267 245 293 265 120 38 307 157 63 319 330 329 331 317 313 352 335 322 320 320 317 314 314 315 315 320 320 316 315 313 311 307 307 299 289 292 272 267 264 262 257
204 310 240 149 261 291 80 102 20 318 251 57 346 329 330 332 316 315 328 322 317 317 316 315 315 316 314 318 321 319 318 319 317 317 314 311 303 286 282 271 272 262 254 256
165 208 231 237 261 276 88 9 212 241 8 358 334 323 319 312 299 310 319 318 314 315 316 316 318 314 312 318 322 319 318 315 317 316 315 312 305 290 284 278 268 255 255 253
186 186 207 209 249 270 106 152 224 36 6 335 326 319 311 307 308 309 313 313 312 313 315 316 314 313 314 321 325 318 315 318 318 317 314 312 312 302 291 272 266 265 262 261
248 222 258 205 230 116 57 91 77 1 324 320 316 315 311 308 307 308 312 312 311 310 310 312 311 311 312 320 322 317 315 319 319 318 317 317 315 312 306 280 266 257 256 252
223 171 234 350 137 176 154 112 327 316 308 315 315 308 310 308 309 307 311 309 309 307 308 311 311 312 311 316 318 316 316 319 318 316 318 319 317 314 305 284 267 255 246 243
359 153 217 253 171 154 204 268 315 321 314 315 311 307 307 309 307 307 306 304 305 304 306 307 308 309 308 312 313 316 317 320 317 314 316 318 318 316 306 294 279 263 258 252
186 219 219 299 110 318 165 307 314 317 314 313 315 312 309 302 301 304 302 299 300 300 303 304 305 308 309 312 310 313 315 318 316 314 315 316 314 310 303 299 295 282 273 272